Location: Newark
(35.2672°N, 80.7344°W)
Time: 00:05:41
(UTC+00:00)

ISS - Visible Passes

Search period start: 28 January 2021 00:00
Search period end: 07 February 2021 00:00
Orbit: 418 x 421 km, 51.6° (Epoch: 28 January)

Date Brightness Start Highest point End Pass type
(mag) Time Alt. Az. Time Alt. Az. Time Alt. Az.
02 Feb -1.5 00:09:20 10° N 00:10:35 14° NNE 00:10:35 14° NNE visible
02 Feb -1.4 23:23:00 10° NNE 23:23:39 10° NNE 23:24:18 10° NNE visible
03 Feb -1.1 00:57:44 10° NW 00:58:30 16° NW 00:58:30 16° NW visible
04 Feb -2.9 00:10:31 10° NNW 00:13:34 32° NE 00:13:34 32° NE visible
04 Feb -2.2 23:23:25 10° NNW 23:26:05 21° NNE 23:28:44 10° E visible
05 Feb -1.7 00:59:49 10° WNW 01:01:51 28° W 01:01:51 28° W visible
06 Feb -3.6 00:12:15 10° NW 00:15:38 75° SW 00:17:21 26° SE visible
06 Feb -3.7 23:24:52 10° NW 23:28:13 58° NE 23:31:32 10° ESE visible
